TimePDT,TemperatureF,Dew PointF,Humidity,Sea Level PressureIn,VisibilityMPH,Wind Direction,Wind SpeedMPH,Gust SpeedMPH,PrecipitationIn,Events,Conditions,WindDirDegrees,DateUTC
12:52 AM,55.9,36.0,47,29.88,10.0,WNW,3.5,-,N/A,,Clear,290,2013-04-21 07:52:00
1:52 AM,55.9,37.0,49,29.88,10.0,West,3.5,-,N/A,,Clear,260,2013-04-21 08:52:00
2:52 AM,60.1,34.0,38,29.87,10.0,Calm,Calm,-,N/A,,Clear,0,2013-04-21 09:52:00
3:52 AM,55.0,36.0,49,29.87,10.0,Calm,Calm,-,N/A,,Clear,0,2013-04-21 10:52:00
4:52 AM,52.0,37.0,57,29.87,10.0,Calm,Calm,-,N/A,,Clear,0,2013-04-21 11:52:00
5:52 AM,51.1,37.0,59,29.88,10.0,North,3.5,-,N/A,,Clear,10,2013-04-21 12:52:00
6:52 AM,57.9,39.0,49,29.91,10.0,WNW,4.6,-,N/A,,Clear,290,2013-04-21 13:52:00
7:52 AM,71.1,41.0,34,29.92,10.0,NNW,5.8,-,N/A,,Clear,330,2013-04-21 14:52:00
8:52 AM,78.1,39.0,25,29.92,10.0,NNW,3.5,-,N/A,,Clear,340,2013-04-21 15:52:00
9:52 AM,84.0,34.0,17,29.93,10.0,Calm,Calm,-,N/A,,Clear,0,2013-04-21 16:52:00
10:52 AM,88.0,39.0,18,29.93,10.0,ESE,6.9,-,N/A,,Clear,110,2013-04-21 17:52:00
11:52 AM,90.0,37.9,16,29.91,10.0,SSE,9.2,-,N/A,,Clear,150,2013-04-21 18:52:00
12:52 PM,91.0,28.0,10,29.89,10.0,SE,12.7,-,N/A,,Clear,130,2013-04-21 19:52:00
1:52 PM,91.9,28.9,11,29.87,10.0,SE,8.1,17.3,N/A,,Clear,130,2013-04-21 20:52:00
2:52 PM,93.9,28.9,10,29.85,10.0,SE,9.2,18.4,N/A,,Clear,140,2013-04-21 21:52:00
3:52 PM,93.9,21.0,7,29.82,10.0,ESE,10.4,-,N/A,,Clear,120,2013-04-21 22:52:00
4:52 PM,93.9,28.0,10,29.80,10.0,SE,6.9,-,N/A,,Clear,130,2013-04-21 23:52:00
5:52 PM,93.0,23.0,8,29.80,10.0,South,6.9,-,N/A,,Clear,170,2013-04-22 00:52:00
6:52 PM,87.1,35.1,16,29.79,10.0,South,5.8,-,N/A,,Clear,180,2013-04-22 01:52:00
7:52 PM,73.9,39.0,28,29.81,10.0,Calm,Calm,-,N/A,,Clear,0,2013-04-22 02:52:00
8:52 PM,75.0,43.0,32,29.83,10.0,NE,4.6,-,N/A,,Clear,40,2013-04-22 03:52:00
9:52 PM,69.1,41.0,36,29.85,10.0,WNW,6.9,-,N/A,,Clear,300,2013-04-22 04:52:00
10:52 PM,66.9,39.9,37,29.88,10.0,SSW,6.9,-,N/A,,Clear,210,2013-04-22 05:52:00
11:52 PM,66.9,39.9,37,29.86,10.0,WSW,5.8,-,N/A,,Clear,250,2013-04-22 06:52:00